Estación de Tranque Lautaro

Ultimos registro cada 15 minutos 38
Estación Fecha / Hora Temperatura Humedad Lluvia Velocidad Dirección Radiación Presion
38 Tranque Lautaro 07-05-2026 09:15 18,3 33,8 0 0 190 368,1 891
37 Tranque Lautaro 07-05-2026 09:00 16,8 38,4 0 0,3 181 316,9 890,3
36 Tranque Lautaro 07-05-2026 08:45 14,5 44,7 0 0,7 164 266,9 890
35 Tranque Lautaro 07-05-2026 08:30 11,4 51,2 0 0,7 166 23,1 889,5
34 Tranque Lautaro 07-05-2026 08:15 11,5 48,7 0 0,7 145 19,4 889,1
33 Tranque Lautaro 07-05-2026 08:00 11,2 57,4 0 0 178 16,9 888,9
32 Tranque Lautaro 07-05-2026 07:45 10 53,1 0 0 220 13,1 889,3
31 Tranque Lautaro 07-05-2026 07:30 10,5 52,7 0 0 222 9,4 889,1
30 Tranque Lautaro 07-05-2026 07:15 11,4 50,2 0 0,3 220 3,1 889,2
29 Tranque Lautaro 07-05-2026 07:00 11,2 52,3 0 0,3 188 0,6 889
28 Tranque Lautaro 07-05-2026 06:45 10,4 58,1 0 0,7 178 0,6 888,8
27 Tranque Lautaro 07-05-2026 06:30 10,1 60 0 0,3 168 0,6 888,5
26 Tranque Lautaro 07-05-2026 06:15 10,7 60,1 0 0 173 0,6 888,6
25 Tranque Lautaro 07-05-2026 06:00 10,3 59,6 0 0 174 0,6 888,7
24 Tranque Lautaro 07-05-2026 05:45 10 58,2 0 0 174 0,6 888,5
23 Tranque Lautaro 07-05-2026 05:30 10,8 55,1 0 0 167 0,6 888,7
22 Tranque Lautaro 07-05-2026 05:15 10,5 59 0 0 124 0,6 888,5
21 Tranque Lautaro 07-05-2026 05:00 10,3 51,1 0 0 105 0,6 888,6
20 Tranque Lautaro 07-05-2026 04:45 10,8 51,6 0 0 108 0,6 888,6
19 Tranque Lautaro 07-05-2026 04:30 10,8 59,2 0 0 107 0,6 888,4
18 Tranque Lautaro 07-05-2026 04:15 10,2 53 0 0 105 0,6 888,4
17 Tranque Lautaro 07-05-2026 04:00 10,2 53,5 0 0 119 0,6 888,3
16 Tranque Lautaro 07-05-2026 03:45 9,8 55,4 0 0 184 0,6 888,2
15 Tranque Lautaro 07-05-2026 03:30 9,9 54,1 0 0 178 0,6 887,8
14 Tranque Lautaro 07-05-2026 03:15 9,6 52 0 0 178 0,6 887,6
13 Tranque Lautaro 07-05-2026 03:00 10 50,4 0 0 178 0,6 888
12 Tranque Lautaro 07-05-2026 02:45 10,6 49,7 0 0 178 0,6 888,7
11 Tranque Lautaro 07-05-2026 02:30 10,5 50,7 0 0 178 0,6 888,9
10 Tranque Lautaro 07-05-2026 02:15 11,3 49,6 0 0 178 0,6 889,1
9 Tranque Lautaro 07-05-2026 02:00 12,2 50,8 0 0 178 0,6 889,7
8 Tranque Lautaro 07-05-2026 01:45 12,1 50 0 0 178 0,6 889,7
7 Tranque Lautaro 07-05-2026 01:30 12,6 48,8 0 0 178 0,6 889,8
6 Tranque Lautaro 07-05-2026 01:15 13,2 48,8 0 0,3 171 0,6 889,9
5 Tranque Lautaro 07-05-2026 01:00 13,3 54,4 0 0 110 0,6 890,1
4 Tranque Lautaro 07-05-2026 00:45 13,8 46 0 0,3 114 0,6 890,1
3 Tranque Lautaro 07-05-2026 00:30 12,8 50,7 0 0,3 180 0,6 890,4
2 Tranque Lautaro 07-05-2026 00:15 12,6 48,4 0 0 184 0,6 890,4
1 Tranque Lautaro 07-05-2026 00:00 12,9 51 0 0 184 0,6 890,4